Content
SEND FEEDBACK

Daily
Averages
Monthly
Summary
United States of America

NEW FORK, WYOMING


Home > North America > United States > Wyoming
Elevation: 6836 feet     Latitude: 42 32N     Longitude: 110 07W

WEATHER
 
SELECT A DAY
Number of Records: 202,688;   Date Range: 1/1/95 - 12/17/14
 
SHARE

PRINT THIS DATA

[ ← Previous Day ]
WEATHER ALMANAC - FEBRUARY 13, 2013
[ Next Day → ]
[ °C ]   °F
Weather ElementAverageHighLow
Temperature22.5 °F32 °F (12:53 pm)12.9 °F (8:53 am)
Dewpoint14.9 °F21.9 °F (1:53 pm)8.1 °F (8:53 am)
Humidity73.2 %84 % (11:53 pm)61 % (4:53 pm)
Barometer30.17 in30.24 in (9:53 am)30.09 in (2:53 pm)
Wind Speed11.3 mph27.6 mph (5:53 pm)
Wind Gust34.5 mph (5:53 pm)
Weather ElementAverage
Visibility10 mi
Wind DirectionSSW (218.3 °)

Weather ElementTotal
Precipitation---
Heating Degree Days42.6 (Base 65)
Averaged from 23 records on February 13, 2013
WEATHER CONDITIONS BREAKOUT
WIND DIRECTION BREAKOUT
WEATHER BY HOUR - FEBRUARY 13, 2013
[ °C ]   °F
Local TimeTemperatureDewpointHumidityBarometerVisibilityWind DirectionWind SpeedGust SpeedPrecipitationEventsConditions
1:53 AM18.0 °F10.9 °F74 %30.19 in10.0 miNorth (360°)9.2 mphClear
2:53 AM19.9 °F14.0 °F78 %30.17 in10.0 miNorth (350°)12.7 mphClear
3:53 AM21.0 °F14.0 °F74 %30.17 in10.0 miNorth (360°)10.4 mphMostly Cloudy
4:53 AM21.9 °F15.1 °F75 %30.17 in10.0 miNorth (350°)18.4 mph23.0 mphPartly Cloudy
5:53 AM21.0 °F15.1 °F78 %30.19 in10.0 miNorth (350°)10.4 mphMostly Cloudy
6:53 AM19.0 °F12.9 °F77 %30.21 in10.0 miVariable4.6 mphMostly Cloudy
7:53 AM14.0 °F9.0 °F80 %30.22 in10.0 miCalmClear
8:53 AM12.9 °F8.1 °F81 %30.22 in10.0 miSSW (210°)8.1 mphClear
9:53 AM17.1 °F12.0 °F81 %30.24 in10.0 miSSW (210°)4.6 mphClear
10:53 AM28.0 °F19.0 °F69 %30.17 in10.0 miNorth (360°)20.7 mph25.3 mphClear
11:53 AM30.0 °F19.0 °F64 %30.15 in10.0 miNNW (340°)8.1 mphClear
12:53 PM32.0 °F21.0 °F64 %30.13 in10.0 miCalmClear
1:53 PM32.0 °F21.9 °F66 %30.12 in10.0 miNorth (350°)16.1 mphClear
2:53 PM30.9 °F21.9 °F69 %30.09 in10.0 miNorth (350°)18.4 mph25.3 mphClear
3:53 PM30.0 °F19.9 °F66 %30.12 in10.0 miNorth (10°)19.6 mph26.5 mphClear
4:53 PM30.0 °F18.0 °F61 %30.13 in10.0 miNNE (20°)17.3 mph21.9 mphOvercast
5:53 PM26.1 °F17.1 °F69 %30.12 in10.0 miNorth (350°)27.6 mph34.5 mphClear
6:53 PM25.0 °F16.0 °F69 %30.16 in10.0 miNNW (340°)23.0 mph28.8 mphClear
7:53 PM21.0 °F14.0 °F74 %30.22 in10.0 miNE (40°)9.2 mphClear
8:53 PM24.1 °F15.1 °F69 %30.20 in10.0 miNNE (30°)10.4 mphClear
9:53 PM14.0 °F9.0 °F80 %30.23 in10.0 miCalmClear
10:53 PM16.0 °F10.9 °F81 %30.17 in10.0 miNW (310°)4.6 mphClear
11:53 PM12.9 °F9.0 °F84 %30.17 in10.0 miNNW (330°)5.8 mphPartly Cloudy
Hourly data recorded from KBPI, located miles away from New Fork, Wyoming







STORIES FROM OUR PARTNERS